CW2857 Weather Reports


time (UTC)temp
F
wind
direction
speed
knots
gust
knots
rain 1hr
in
rain 24hr
in
rain mn
in
humidity
%
barometer
mb
20260503203536 78 360 3.5 10.4 0.00 0.00 0.00 13 1003.6
20260503203035 78 360 2.6 12.2 0.00 0.00 0.00 13 1003.6
20260503202535 78 360 2.6 10.4 0.00 0.00 0.00 13 1003.7
20260503202036 78 360 4.3 10.4 0.00 0.00 0.00 13 1003.8
20260503201535 78 360 4.3 7.8 0.00 0.00 0.00 13 1003.9
20260503201032 77 360 2.6 7.0 0.00 0.00 0.00 14 1004.0
20260503200532 77 360 1.7 11.3 0.00 0.00 0.00 14 1004.0
20260503200031 77 90 3.5 12.2 0.00 0.00 0.00 14 1004.2
20260503195530 79 360 7.8 12.2 0.00 0.00 0.00 13 1004.2
20260503195028 80 360 1.7 7.0 0.00 0.00 0.00 13 1004.4
20260503194529 80 360 2.6 8.7 0.00 0.00 0.00 13 1004.5
20260503194027 80 360 2.6 8.7 0.00 0.00 0.00 13 1004.6
20260503193525 80 360 2.6 5.2 0.00 0.00 0.00 13 1004.7
20260503193024 79 360 0.9 10.4 0.00 0.00 0.00 14 1004.8
20260503192524 79 360 5.2 10.4 0.00 0.00 0.00 13 1004.9
20260503192021 79 360 3.5 9.6 0.00 0.00 0.00 14 1004.9
20260503191521 79 360 2.6 10.4 0.00 0.00 0.00 14 1005.0
20260503191019 78 360 3.5 10.4 0.00 0.00 0.00 14 1005.1
20260503190519 78 360 3.5 9.6 0.00 0.00 0.00 14 1005.3
20260503190017 77 360 3.5 5.2 0.00 0.00 0.00 15 1005.4
20260503185517 77 360 1.7 5.2 0.00 0.00 0.00 15 1005.4
20260503185018 76 360 1.7 5.2 0.00 0.00 0.00 17 1005.6
20260503184514 75 360 2.6 7.0 0.00 0.00 0.00 18 1005.7
20260503184013 74 360 2.6 9.6 0.00 0.00 0.00 16 1005.7
20260503183516 75 360 2.6 9.6 0.00 0.00 0.00 16 1005.7
20260503183012 76 360 3.5 8.7 0.00 0.00 0.00 16 1005.7
20260503182512 75 360 0.9 7.0 0.00 0.00 0.00 17 1005.8
20260503182010 76 360 2.6 5.2 0.00 0.00 0.00 17 1005.9
20260503181523 75 360 1.7 8.7 0.00 0.00 0.00 17 1006.0
20260503181008 74 360 2.6 8.7 0.00 0.00 0.00 18 1006.1
20260503180507 74 360 4.3 7.8 0.00 0.00 0.00 19 1006.2
20260503180014 73 360 0.9 4.3 0.00 0.00 0.00 19 1006.2
20260503175507 73 360 1.7 7.0 0.00 0.00 0.00 19 1006.3
20260503175004 73 360 0.9 5.2 0.00 0.00 0.00 20 1006.4
20260503174503 73 360 1.7 5.2 0.00 0.00 0.00 21 1006.4
20260503174004 72 360 0.9 5.2 0.00 0.00 0.00 21 1006.4
20260503173600 72 360 2.6 5.2 0.00 0.00 0.00 22 1006.4
20260503173501 72 360 1.7 5.2 0.00 0.00 0.00 22 1006.4
20260503173112 71 360 1.7 4.3 0.00 0.00 0.00 22 1006.5
20260503172601 70 360 0.0 5.2 0.00 0.00 0.00 23 1006.5
20260503172057 70 360 1.7 5.2 0.00 0.00 0.00 23 1006.6
20260503171557 70 360 0.9 4.3 0.00 0.00 0.00 23 1006.5
20260503171057 70 360 2.6 5.2 0.00 0.00 0.00 23 1006.6
20260503170556 70 360 1.7 5.2 0.00 0.00 0.00 24 1006.6
20260503170107 69 360 0.0 5.2 0.00 0.00 0.00 24 1006.6
20260503150534 60 360 1.7 5.2 0.00 0.00 0.00 39 1007.1
20260503131029 57 360 2.6 9.6 0.00 0.00 0.00 48 1007.0
20260503130531 57 360 4.3 9.6 0.00 0.00 0.00 49 1007.1
20260503110521 58 360 5.2 11.3 0.00 0.00 0.00 43 1007.6
20260503081554 60 360 7.8 12.2 0.00 0.00 0.00 40 1008.9
20260503081053 59 360 6.1 9.6 0.00 0.00 0.00 45 1009.0
20260503080552 59 360 3.5 7.8 0.00 0.00 0.00 43 1009.1
20260503072548 60 360 2.6 7.8 0.00 0.00 0.00 41 1009.7
20260503072046 60 360 2.6 7.8 0.00 0.00 0.00 39 1009.7
20260503071544 59 360 1.7 7.8 0.00 0.00 0.00 40 1009.6
20260503071042 59 360 4.3 9.6 0.00 0.00 0.00 41 1009.5
20260503070541 59 360 6.1 11.3 0.00 0.00 0.00 41 1009.4
20260503055036 60 360 4.3 12.2 0.00 0.00 0.00 43 1009.6
20260503054539 60 360 7.8 14.8 0.00 0.00 0.00 41 1009.5
20260503054037 60 360 7.8 14.8 0.00 0.00 0.00 41 1009.4
20260503053535 60 360 7.0 9.6 0.00 0.00 0.00 41 1009.5
20260503053035 60 360 5.2 9.6 0.00 0.00 0.00 41 1009.6
20260503052536 60 360 3.5 7.8 0.00 0.00 0.00 41 1009.8
20260503052035 60 360 2.6 7.0 0.00 0.00 0.00 41 1009.8
20260503051535 60 360 1.7 8.7 0.00 0.00 0.00 41 1009.8
20260503051034 61 360 4.3 8.7 0.00 0.00 0.00 41 1009.4
20260503050534 61 360 3.5 8.7 0.00 0.00 0.00 39 1009.8
20260503050035 61 360 4.3 8.7 0.00 0.00 0.00 39 1010.2
20260503045533 61 360 3.5 5.2 0.00 0.00 0.00 42 1010.3
20260503045034 61 360 0.0 3.5 0.00 0.00 0.00 40 1010.6
20260503044538 61 360 0.9 4.3 0.00 0.00 0.00 39 1010.7
20260503044033 61 360 2.6 5.2 0.00 0.00 0.00 38 1010.5
20260503043532 61 360 2.6 7.8 0.00 0.00 0.00 37 1010.1
20260503043032 62 360 3.5 7.8 0.00 0.00 0.00 37 1009.9
20260503042534 62 360 0.9 10.4 0.00 0.00 0.00 37 1009.8
20260503042031 62 360 6.1 11.3 0.00 0.00 0.00 37 1009.8
20260503041535 62 360 5.2 11.3 0.00 0.00 0.00 36 1009.8
20260503041030 63 360 7.0 10.4 0.00 0.00 0.00 34 1009.6
20260503040530 64 360 2.6 7.8 0.00 0.00 0.00 29 1009.5
20260503040035 64 360 2.6 7.0 0.00 0.00 0.00 29 1009.4
20260503035530 64 360 1.7 9.6 0.00 0.00 0.00 29 1009.4
20260503035030 64 360 5.2 10.4 0.00 0.00 0.00 29 1009.2
20260503034530 64 360 6.1 10.4 0.00 0.00 0.00 30 1009.1
20260503034032 63 360 0.0 9.6 0.00 0.00 0.00 32 1009.2
20260503033528 63 360 3.5 9.6 0.00 0.00 0.00 33 1009.2
20260503033028 63 360 0.9 11.3 0.00 0.00 0.00 34 1009.0
20260503032528 63 360 6.1 12.2 0.00 0.00 0.00 33 1008.9
20260503032028 63 360 7.0 15.6 0.00 0.00 0.00 34 1008.8
20260503031528 63 360 6.1 15.6 0.00 0.00 0.00 34 1008.5
20260503031028 63 360 7.8 15.6 0.00 0.00 0.00 34 1008.6
20260503030526 64 360 7.0 13.9 0.00 0.00 0.00 32 1008.5
20260503030032 65 360 8.7 13.9 0.00 0.00 0.00 29 1008.4
20260503025525 65 360 4.3 11.3 0.00 0.00 0.00 27 1008.2
20260503025025 65 360 6.1 11.3 0.00 0.00 0.00 28 1008.1
20260503024526 65 360 4.3 10.4 0.00 0.00 0.00 28 1008.1
20260503024025 65 360 3.5 9.6 0.00 0.00 0.00 28 1007.7
20260503023525 66 360 4.3 11.3 0.00 0.00 0.00 28 1007.6
20260503023026 66 360 4.3 11.3 0.00 0.00 0.00 27 1007.4
20260503022524 66 360 5.2 12.2 0.00 0.00 0.00 27 1007.3
20260503022024 66 360 7.8 13.0 0.00 0.00 0.00 28 1007.3
20260503021524 66 360 7.8 13.0 0.00 0.00 0.00 27 1007.3
20260503021024 66 360 6.1 10.4 0.00 0.00 0.00 26 1007.4
20260503020523 66 360 5.2 13.0 0.00 0.00 0.00 26 1007.6
20260503020023 66 360 8.7 13.0 0.00 0.00 0.00 26 1007.7
20260503015526 66 360 7.0 10.4 0.00 0.00 0.00 28 1007.8
20260503015022 66 360 5.2 10.4 0.00 0.00 0.00 28 1008.1
20260503014523 66 360 2.6 11.3 0.00 0.00 0.00 27 1008.0
20260503014022 66 360 7.0 11.3 0.00 0.00 0.00 28 1008.1
20260503013522 66 360 4.3 13.0 0.00 0.00 0.00 30 1008.4
20260503013022 66 360 7.8 13.0 0.00 0.00 0.00 29 1008.6
20260503012522 66 360 6.1 12.2 0.00 0.00 0.00 28 1008.4
20260503012022 66 360 3.5 12.2 0.00 0.00 0.00 28 1008.4
20260503011529 66 360 6.1 12.2 0.00 0.00 0.00 28 1008.4
20260503011023 67 360 7.0 11.3 0.00 0.00 0.00 27 1008.3
20260503010520 67 360 4.3 11.3 0.00 0.00 0.00 27 1008.1
20260503010020 67 360 7.8 12.2 0.00 0.00 0.00 27 1008.1
20260503005522 67 360 7.0 13.9 0.00 0.00 0.00 26 1007.9
20260503005021 67 360 10.4 14.8 0.00 0.00 0.00 27 1007.8
20260503004520 67 360 9.6 16.5 0.00 0.00 0.00 27 1007.6
20260503004018 67 360 9.6 21.7 0.00 0.00 0.00 25 1007.4
20260503003519 68 360 11.3 21.7 0.00 0.00 0.00 25 1007.2
20260503003019 68 360 11.3 21.7 0.00 0.00 0.00 25 1007.0
20260503002519 68 360 11.3 18.2 0.00 0.00 0.00 25 1007.3
20260503002021 69 360 4.3 10.4 0.00 0.00 0.00 23 1007.6
20260503001519 69 360 5.2 10.4 0.00 0.00 0.00 23 1007.6
20260503001018 69 360 6.1 9.6 0.00 0.00 0.00 23 1007.6
20260503000517 69 360 1.7 7.8 0.00 0.00 0.00 22 1007.7
20260503000018 69 360 2.6 7.8 0.00 0.00 0.00 23 1007.6
20260502235517 69 360 3.5 7.8 0.00 0.00 0.00 23 1007.6
20260502235018 68 360 2.6 7.8 0.00 0.00 0.00 24 1007.5
20260502234531 68 360 2.6 5.2 0.00 0.00 0.00 24 1007.5
20260502234019 68 360 3.5 10.4 0.00 0.00 0.00 24 1007.3
20260502233518 68 360 5.2 10.4 0.00 0.00 0.00 24 1007.3
20260502233017 68 360 4.3 7.0 0.00 0.00 0.00 24 1007.3
20260502232517 68 360 3.5 15.6 0.00 0.00 0.00 25 1007.3
20260502232016 68 360 2.6 20.9 0.00 0.00 0.00 26 1007.9
20260502231516 68 360 13.0 24.3 0.00 0.00 0.00 28 1007.9
20260502231016 70 360 14.8 24.3 0.00 0.00 0.00 22 1007.7
20260502230515 71 360 14.8 23.5 0.00 0.00 0.00 20 1007.8
20260502230019 73 360 3.5 13.0 0.00 0.00 0.00 18 1007.4
20260502225513 73 360 7.8 13.0 0.00 0.00 0.00 17 1007.1
20260502225014 73 360 5.2 11.3 0.00 0.00 0.00 17 1007.0
20260502224514 74 360 5.2 11.3 0.00 0.00 0.00 16 1006.8
20260502224015 74 360 3.5 7.8 0.00 0.00 0.00 16 1006.8
20260502223512 75 360 3.5 7.8 0.00 0.00 0.00 16 1006.8
20260502223012 75 360 2.6 8.7 0.00 0.00 0.00 15 1006.9
20260502222513 76 360 2.6 7.8 0.00 0.00 0.00 15 1007.1
20260502222012 75 360 0.9 7.8 0.00 0.00 0.00 15 1007.1
20260502221510 75 360 3.5 7.8 0.00 0.00 0.00 15 1007.2
20260502221009 76 360 2.6 7.8 0.00 0.00 0.00 15 1007.3
20260502220508 75 360 2.6 7.0 0.00 0.00 0.00 15 1007.3
20260502220018 74 360 0.0 5.2 0.00 0.00 0.00 16 1007.4
20260502215510 74 360 1.7 9.6 0.00 0.00 0.00 16 1007.5
20260502215006 74 360 5.2 9.6 0.00 0.00 0.00 16 1007.5
20260502214507 74 360 3.5 10.4 0.00 0.00 0.00 16 1007.7
20260502214006 74 360 6.1 12.2 0.00 0.00 0.00 16 1007.8
20260502213505 75 360 7.0 13.9 0.00 0.00 0.00 16 1007.8
20260502213015 75 360 3.5 13.9 0.00 0.00 0.00 16 1008.0
20260502212504 76 360 6.1 11.3 0.00 0.00 0.00 15 1008.0
20260502212004 76 360 6.1 10.4 0.00 0.00 0.00 15 1008.1
20260502211503 75 360 2.6 9.6 0.00 0.00 0.00 15 1008.1
20260502211002 75 360 3.5 9.6 0.00 0.00 0.00 15 1008.1
20260502210501 74 360 3.5 13.0 0.00 0.00 0.00 16 1008.3
20260502210001 75 360 5.2 13.0 0.00 0.00 0.00 15 1008.3
20260502205501 76 360 5.2 12.2 0.00 0.00 0.00 15 1008.4
20260502205001 77 360 4.3 10.4 0.00 0.00 0.00 14 1008.3
20260502204501 78 360 4.3 10.4 0.00 0.00 0.00 14 1008.5
20260502204103 78 360 4.3 10.4 0.00 0.00 0.00 14 1008.5